Weather History for KMVN - March, 2012

Change the Weather History Date:

Friday, March 30, 2012

  Actual Average Record
Temperature  
Mean Temperature 66 °F -  
Max Temperature 80 °F 58 °F 80 °F (2012)
Min Temperature 51 °F 38 °F 23 °F (2014)
Growing Degree Days 16 (Base 50)    
Moisture  
Dew Point 56 °F    
Average Humidity 71    
Maximum Humidity 94    
Minimum Humidity 51    
Precipitation  
Precipitation 0.00 in - - ()
Sea Level Pressure  
Sea Level Pressure 29.80 in    
Wind  
Wind Speed 6 mph (SSW)    
Max Wind Speed 21 mph    
Max Gust Speed 24 mph    
Visibility 10 miles    
Events Thunderstorm    
Averages and records for this station are not official NWS values.
T = Trace of Precipitation, MM = Missing Value Source: NWS Daily Summary

Daily Weather History Graph

Daily Weather History Graph

Search for Another Location

Airport or City:

Trip Planner

Search our weather history database for the weather conditions in past years. The results will help you decide how hot, cold, wet, or windy it might be!

Date:

Astronomy

Mar. 30, 2012 Rise Set
Actual Time 6:42 AM CDT 7:17 PM CDT
Civil Twilight 6:16 AM CDT 7:43 PM CDT
Nautical Twilight 5:44 AM CDT 8:15 PM CDT
Astronomical Twilight 5:12 AM CDT 8:47 PM CDT
Moon 11:52 AM CDT (3/30) 1:49 AM CDT (3/30)
Length of Visible Light 13h 27m
Length of Day
12h 34m
Waxing Crescent, 49% of the Moon is Illuminated
Mar 30
Waxing Crescent
Mar 30
First Quarter
Apr 6
Full
Apr 13
Last Quarter
Apr 21
New

Hourly Weather History & Observations

Time (CDT) Temp. Heat Index Dew Point Humidity Pressure Visibility Wind Dir Wind Speed Gust Speed Precip Events Conditions
12:15 AM 60.8 °F - 46.4 °F 59% 29.88 in 10.0 mi NNE 4.6 mph - N/A   Clear
12:35 AM 59.0 °F - 46.4 °F 63% 29.87 in 7.0 mi NNE 3.5 mph - N/A   Clear
12:55 AM 57.2 °F - 46.4 °F 67% 29.87 in 10.0 mi NNE 3.5 mph - N/A   Scattered Clouds
1:15 AM 55.4 °F - 46.4 °F 72% 29.87 in 10.0 mi NNE 3.5 mph - N/A   Scattered Clouds
1:35 AM 55.4 °F - 46.4 °F 72% 29.86 in 10.0 mi NNE 3.5 mph - N/A   Clear
1:55 AM 53.6 °F - 46.4 °F 77% 29.85 in 10.0 mi Calm Calm - N/A   Clear
2:15 AM 53.6 °F - 46.4 °F 77% 29.85 in 10.0 mi Calm Calm - N/A   Clear
2:35 AM 55.4 °F - 46.4 °F 72% 29.84 in 10.0 mi ENE 3.5 mph - N/A   Clear
2:55 AM 55.4 °F - 48.2 °F 77% 29.85 in 10.0 mi Calm Calm - N/A   Clear
3:15 AM 53.6 °F - 48.2 °F 82% 29.85 in 10.0 mi NE 3.5 mph - N/A   Clear
3:35 AM 55.4 °F - 48.2 °F 77% 29.85 in 10.0 mi Calm Calm - N/A   Clear
3:55 AM 51.8 °F - 46.4 °F 82% 29.84 in 10.0 mi Calm Calm - N/A   Clear
4:15 AM 53.6 °F - 48.2 °F 82% 29.84 in 10.0 mi Calm Calm - N/A   Clear
4:35 AM 51.8 °F - 46.4 °F 82% 29.84 in 10.0 mi Calm Calm - N/A   Clear
4:55 AM 51.8 °F - 48.2 °F 88% 29.84 in 10.0 mi Calm Calm - N/A   Clear
5:15 AM 51.8 °F - 48.2 °F 88% 29.84 in 10.0 mi Calm Calm - N/A   Clear
5:35 AM 51.8 °F - 48.2 °F 88% 29.83 in 10.0 mi Calm Calm - N/A   Clear
5:55 AM 51.8 °F - 48.2 °F 88% 29.83 in 10.0 mi Calm Calm - N/A   Clear
6:15 AM 53.6 °F - 50.0 °F 88% 29.82 in 10.0 mi SW 3.5 mph - N/A   Clear
6:35 AM 55.4 °F - 51.8 °F 88% 29.82 in 10.0 mi SW 4.6 mph - N/A   Clear
6:55 AM 55.4 °F - 53.6 °F 94% 29.82 in 10.0 mi SSW 5.8 mph - N/A   Clear
7:15 AM 57.2 °F - 53.6 °F 88% 29.82 in 10.0 mi SSW 3.5 mph - N/A   Clear
7:35 AM 59.0 °F - 55.4 °F 88% 29.83 in 10.0 mi SSW 3.5 mph - N/A   Clear
7:55 AM 62.6 °F - 57.2 °F 82% 29.83 in 10.0 mi SSW 6.9 mph - N/A   Clear
8:15 AM 62.6 °F - 59.0 °F 88% 29.83 in 10.0 mi SSW 10.4 mph - N/A   Clear
8:35 AM 64.4 °F - 57.2 °F 77% 29.83 in 10.0 mi SSW 10.4 mph - N/A   Clear
8:55 AM 66.2 °F - 59.0 °F 78% 29.82 in 10.0 mi SSW 11.5 mph - N/A   Clear
9:15 AM 66.2 °F - 59.0 °F 78% 29.82 in 10.0 mi SW 10.4 mph - N/A   Clear
9:35 AM 69.8 °F - 59.0 °F 68% 29.82 in 10.0 mi SSW 11.5 mph - N/A   Clear
9:55 AM 71.6 °F - 60.8 °F 69% 29.82 in 10.0 mi SSW 13.8 mph - N/A   Clear
10:15 AM 71.6 °F - 60.8 °F 69% 29.81 in 10.0 mi SSW 13.8 mph 19.6 mph N/A   Clear
10:35 AM 73.4 °F - 60.8 °F 65% 29.81 in 10.0 mi South 12.7 mph 19.6 mph N/A   Clear
10:55 AM 73.4 °F - 62.6 °F 69% 29.81 in 10.0 mi SSW 15.0 mph - N/A   Clear
11:35 AM 75.2 °F - 62.6 °F 65% 29.80 in 10.0 mi SSW 15.0 mph 19.6 mph N/A   Clear
11:55 AM 75.2 °F - 62.6 °F 65% 29.79 in 10.0 mi SSW 16.1 mph - N/A   Clear
12:15 PM 77.0 °F - 62.6 °F 61% 29.79 in 10.0 mi SSW 16.1 mph 21.9 mph N/A   Clear
12:35 PM 78.8 °F - 62.6 °F 57% 29.79 in 10.0 mi South 17.3 mph - N/A   Scattered Clouds
12:55 PM 78.8 °F - 62.6 °F 57% 29.78 in 10.0 mi South 19.6 mph 24.2 mph N/A   Scattered Clouds
1:15 PM 78.8 °F - 62.6 °F 57% 29.77 in 10.0 mi SSW 20.7 mph 24.2 mph N/A   Partly Cloudy
1:35 PM 78.8 °F - 62.6 °F 57% 29.77 in 10.0 mi South 18.4 mph - N/A   Partly Cloudy
1:55 PM 78.8 °F - 62.6 °F 57% 29.77 in 10.0 mi SSW 18.4 mph 24.2 mph N/A   Scattered Clouds
2:15 PM 78.8 °F - 60.8 °F 54% 29.76 in 10.0 mi SSW 19.6 mph 23.0 mph N/A   Scattered Clouds
2:35 PM 78.8 °F - 59.0 °F 51% 29.76 in 10.0 mi SW 16.1 mph 20.7 mph N/A   Scattered Clouds
2:55 PM 80.6 °F 81.5 °F 60.8 °F 51% 29.75 in 9.0 mi SSW 18.4 mph 23.0 mph N/A   Scattered Clouds
3:15 PM 78.8 °F - 60.8 °F 54% 29.74 in 10.0 mi SSW 17.3 mph 21.9 mph N/A   Partly Cloudy
3:35 PM 78.8 °F - 60.8 °F 54% 29.73 in 10.0 mi SSW 15.0 mph - N/A   Partly Cloudy
3:55 PM 78.8 °F - 60.8 °F 54% 29.72 in 10.0 mi SSW 17.3 mph - N/A   Clear
4:15 PM 78.8 °F - 60.8 °F 54% 29.72 in 10.0 mi SSW 16.1 mph 19.6 mph N/A   Clear
4:35 PM 78.8 °F - 59.0 °F 51% 29.72 in 10.0 mi SSW 15.0 mph 21.9 mph N/A   Partly Cloudy
4:55 PM 75.2 °F - 59.0 °F 57% 29.73 in 10.0 mi SSW 13.8 mph - N/A   Scattered Clouds
5:15 PM 75.2 °F - 59.0 °F 57% 29.72 in 10.0 mi South 10.4 mph - N/A   Mostly Cloudy
5:35 PM 75.2 °F - 59.0 °F 57% 29.72 in 10.0 mi SSW 8.1 mph - N/A   Partly Cloudy
5:55 PM 73.4 °F - 59.0 °F 61% 29.74 in 10.0 mi SW 4.6 mph - N/A   Mostly Cloudy
6:15 PM 73.4 °F - 60.8 °F 65% 29.74 in 10.0 mi SSW 4.6 mph - N/A Thunderstorm Overcast
6:35 PM 69.8 °F - 60.8 °F 73% 29.75 in 10.0 mi North 3.5 mph - N/A   Overcast
6:55 PM 69.8 °F - 60.8 °F 73% 29.76 in 10.0 mi NNE 6.9 mph - N/A Thunderstorm Overcast
8:15 PM 64.4 °F - 62.6 °F 94% 29.76 in 8.0 mi North 3.5 mph - N/A Thunderstorm Thunderstorm
8:35 PM 64.4 °F - 60.8 °F 88% 29.78 in 8.0 mi NNE 4.6 mph - N/A Thunderstorm Thunderstorm
9:15 PM 64.4 °F - 60.8 °F 88% 29.79 in 10.0 mi Calm Calm - N/A   Mostly Cloudy
9:35 PM 64.4 °F - 60.8 °F 88% 29.80 in 8.0 mi NNW 3.5 mph - N/A   Mostly Cloudy
9:55 PM 64.4 °F - 60.8 °F 88% 29.80 in 5.0 mi Calm Calm - N/A   Overcast
10:15 PM 62.6 °F - 60.8 °F 94% 29.80 in 5.0 mi North 3.5 mph - N/A   Mostly Cloudy
10:35 PM 62.6 °F - 60.8 °F 94% 29.80 in 4.0 mi NNW 5.8 mph - N/A   Partly Cloudy
11:15 PM 59.0 °F - 57.2 °F 94% 29.80 in 0.5 mi NE 3.5 mph - N/A   Mostly Cloudy
11:35 PM 60.8 °F - 59.0 °F 94% 29.80 in 0.2 mi Calm Calm - N/A   Overcast
11:55 PM 59.0 °F - 57.2 °F 94% 29.81 in 0.5 mi Calm Calm - N/A   Mostly Cloudy